Vertical_Velocity
-1 -1 -1 -1 -1 -1 -1 -1 -0 -0 -0 -1 -1 -0 0 1 0 0 2 4 4 3 3 3 3 5 9 13 9 6 2 -2 -1 -1 -1 -4 -3 -2 -2 -5 -7 -6 -5 -4 -3 -1 -0 -1 -0 0 -1 -6 -8 -6 -2 -2 1 5 7 4 1 -0 0 1 0 -0 -1 -2 -0
-1 -1 -1 -2 -2 -2 -2 -2 -1 -0 -0 -0 -0 0 0 0 -0 0 1 2 3 3 3 3 4 7 9 6 3 2 0 -2 -4 -6 -9 -12 -10 -6 -4 -5 -8 -8 -6 -5 -4 -2 -0 -1 2 1 -2 -9 -8 -6 -3 -1 4 7 9 8 4 0 -2 -4 -4 -4 -3 -2 -2
-1 -2 -2 -2 -2 -2 -2 -2 -2 -1 -0 0 1 1 0 0 0 0 0 1 2 3 3 3 6 8 7 1 -4 -5 -3 -2 -4 -6 -8 -9 -6 -3 -1 -1 -2 -2 -2 -2 -2 -1 0 2 2 1 -1 -4 -2 0 3 7 9 9 8 6 0 -3 -5 -6 -6 -3 0 2 3
-1 -2 -2 -2 -2 -2 -2 -2 -2 -1 -1 -0 0 0 0 0 1 1 1 1 2 2 3 3 5 7 6 0 -5 -5 -4 -3 -4 -4 -2 0 3 5 6 6 5 3 1 -0 -1 0 2 4 1 -1 -4 -4 -1 2 6 8 8 6 3 -1 -4 -5 -5 -5 -3 -1 1 3 3
-1 -1 -2 -2 -2 -2 -2 -2 -2 -1 -1 -0 -0 -0 0 1 2 2 2 2 2 1 1 0 2 3 3 2 -0 -1 -3 -5 -5 -4 -2 -2 -3 -3 -2 3 5 4 2 -1 -0 2 4 4 -1 -4 -5 -4 0 4 6 4 1 -1 -3 -4 -4 -3 -2 -0 0 0 -0 -1 -2
-1 -1 -2 -2 -2 -2 -1 -1 -1 -1 -0 -0 -0 0 1 1 2 2 2 2 1 0 -1 -1 -0 1 2 2 3 1 -2 -6 -5 -4 -2 -3 -3 -3 -2 -1 0 0 -0 -1 1 3 3 -0 -3 -4 -2 1 3 3 2 1 -0 -2 -3 -5 -4 -1 2 4 1 -1 -2 -3 -4
-1 -1 -1 -1 -1 -1 -0 -0 -0 -0 -0 0 0 0 0 1 1 0 -0 -0 -0 -1 -3 -4 -3 -1 0 1 2 0 -2 -4 -4 -4 -3 -2 -2 -1 -0 1 -0 -1 -0 1 2 2 -1 -4 -4 -2 -0 2 3 1 0 -0 -1 -3 -4 -6 -5 -2 -0 -1 -1 -0 -0 -1 -2
-1 -1 -1 -0 -0 -0 -0 0 1 1 1 1 -0 -1 -1 -1 -1 -2 -2 -2 -3 -4 -4 -4 -2 -1 -1 0 1 1 0 -1 -2 -3 -3 -3 -2 -1 -0 -0 -1 -0 1 3 2 0 -2 -4 -2 -1 -0 -1 -1 -2 -2 -2 -2 -3 -4 -5 -5 -3 -2 -1 -0 0 0 -0 -1
-1 -1 -0 -0 -0 -0 0 2 2 1 0 -0 -1 -2 -2 -1 -2 -4 -4 -3 -4 -3 -2 -1 -1 -1 -1 -1 0 1 2 1 0 -1 -2 -1 -0 -0 -0 -1 0 2 2 2 1 -0 -1 -1 -0 -0 -0 -0 -0 -1 -2 -2 -1 -2 -2 -2 -2 -2 -1 -1 -0 0 0 -0 -1
-0 -0 -0 -0 0 1 2 4 2 0 -1 -1 -1 -0 -0 -1 -3 -4 -4 -2 -1 -0 1 0 -0 -1 -1 -1 0 2 2 3 2 1 1 1 1 1 0 1 2 3 2 1 -0 -0 -0 0 0 0 0 0 -0 -1 -2 -2 -1 -1 -0 -0 -0 -0 -0 -0 -0 0 0 0 -0
1 1 0 0 1 2 2 2 -0 -1 -1 -0 0 0 -1 -2 -2 -2 -1 0 1 1 0 -0 -1 -1 -1 -0 1 2 3 3 3 3 2 2 1 1 1 2 3 2 2 0 -1 -0 -0 0 0 -0 -1 -2 -2 -2 -2 -1 -0 -0 -0 -0 -0 -0 -0 -1 -0 0 1 1 -0
1 0 -0 0 0 0 -0 -1 -1 -1 0 0 1 -0 -1 -1 -0 0 0 1 0 0 0 -0 -0 -0 -0 1 1 2 3 3 3 3 2 2 2 2 2 3 3 2 1 -0 -0 -0 -0 -0 -1 -1 -2 -3 -2 -2 -1 -1 -1 -1 -1 -1 -1 -1 -1 -1 -0 0 1 0 -0
-1 -1 -1 -1 -1 -1 -1 -1 -1 -0 -0 -1 -0 -0 -0 0 1 1 0 0 0 1 2 1 1 1 1 1 2 2 3 3 3 3 3 4 4 4 4 3 2 2 1 -0 -0 -0 -1 -1 -2 -2 -2 -3 -2 -2 -1 -1 -1 -2 -2 -2 -2 -2 -2 -2 -1 -0 -0 -1 -1
-1 -1 -1 -2 -2 -2 -1 -0 -1 -2 -2 -2 -1 -0 -0 0 1 1 1 1 2 3 3 2 2 2 2 2 3 3 4 4 3 3 4 4 4 3 2 1 1 -0 -0 -0 -1 -1 -1 -2 -2 -2 -2 -2 -2 -1 -1 -1 -2 -2 -2 -2 -3 -3 -2 -2 -1 -1 -1 -1 -1
-1 -1 -2 -2 -2 -1 -0 -1 -2 -2 -1 -1 -0 -0 0 1 1 1 2 2 2 3 3 3 3 3 3 3 3 3 4 4 4 4 4 3 1 0 -0 -1 -1 -1 -1 -1 -2 -1 -1 -1 -1 -1 -1 -1 -1 -1 -2 -2 -2 -2 -2 -2 -2 -2 -1 -1 -1 -1 -1 -1 -1
-1 -1 -2 -2 -1 -0 -0 -1 -1 -1 -0 0 1 1 1 2 2 2 2 2 2 2 2 2 2 2 3 2 2 2 2 2 2 2 1 -0 -1 -2 -2 -3 -2 -2 -2 -2 -2 -1 -1 -0 -0 -1 -1 -1 -1 -1 -2 -2 -2 -2 -2 -2 -2 -1 -1 -0 -1 -1 -1 -0 0
-1 -1 -1 -1 -0 -0 -0 -0 0 1 1 1 2 2 2 3 3 2 2 2 2 2 2 2 2 2 2 2 1 1 1 1 1 1 -0 -1 -2 -2 -2 -3 -3 -3 -2 -2 -1 -1 -1 -1 -1 -1 -1 -2 -2 -2 -2 -2 -2 -2 -2 -2 -2 -1 -1 -1 -1 -1 -1 -0 0
-0 -0 -0 -0 0 0 1 1 1 2 2 2 3 3 2 3 3 2 2 2 2 1 1 2 2 2 2 2 1 1 1 1 1 -0 -1 -2 -3 -3 -3 -3 -2 -2 -2 -1 -2 -2 -2 -2 -2 -2 -2 -2 -2 -2 -2 -2 -3 -3 -3 -3 -2 -2 -2 -1 -1 -1 -1 -1 -0
0 1 1 1 1 1 1 1 2 2 2 2 2 2 2 1 2 2 1 1 1 1 1 1 1 1 0 -0 -0 -0 -1 -1 -1 -2 -2 -2 -2 -3 -3 -2 -2 -2 -2 -2 -2 -2 -2 -2 -2 -2 -2 -2 -2 -2 -2 -2 -3 -3 -3 -3 -3 -2 -2 -2 -1 -1 -1 -1 -1
1 1 1 1 1 1 0 1 1 1 1 1 1 1 0 -0 1 1 1 -0 -1 -0 -0 0 -0 -1 -1 -1 -1 -1 -2 -2 -2 -2 -2 -2 -2 -2 -2 -2 -2 -2 -2 -3 -3 -3 -3 -3 -2 -2 -2 -1 -1 -1 -2 -2 -2 -3 -3 -3 -2 -2 -2 -2 -2 -1 -1 -1 -1
1 1 1 0 0 -0 0 0 0 0 0 0 1 0 -0 -0 1 1 -0 -2 -2 -1 -1 0 -0 -1 -1 -1 -1 -1 -1 -2 -2 -2 -2 -2 -2 -2 -2 -2 -2 -3 -3 -3 -3 -2 -2 -2 -2 -1 -1 -1 -1 -1 -2 -2 -2 -2 -2 -2 -2 -2 -2 -2 -2 -2 -2 -1 -2
1 1 0 -0 -1 -1 -1 -0 -1 -1 -1 -1 -0 -0 -0 -0 0 -0 -1 -2 -2 -2 -2 -1 -1 -1 -1 -1 -2 -2 -2 -2 -2 -2 -2 -2 -2 -2 -2 -2 -2 -2 -2 -2 -2 -2 -2 -2 -1 -1 -1 -1 -1 -1 -1 -1 -1 -1 -1 -1 -2 -2 -2 -2 -2 -2 -2 -2 -2
-0 -1 -1 -1 -1 -1 -0 -0 -1 -1 -1 -0 0 0 0 -0 -0 -1 -1 -2 -3 -3 -3 -2 -2 -2 -2 -2 -2 -2 -2 -2 -2 -2 -2 -2 -2 -2 -2 -2 -1 -1 -1 -1 -1 -1 -1 -1 -1 -1 -1 -1 -1 -1 -1 -0 -0 -1 -1 -2 -2 -3 -3 -2 -2 -2 -2 -2 -2
-1 -0 -0 -0 0 1 1 1 0 0 0 1 0 -0 -0 -1 -1 -1 -2 -3 -3 -3 -2 -2 -2 -2 -2 -2 -2 -2 -2 -2 -2 -2 -2 -2 -1 -1 -1 -0 -0 -0 -0 -0 -1 -1 -1 -1 -1 -1 -1 -1 -1 -1 -1 -0 -1 -1 -2 -2 -2 -2 -2 -2 -2 -2 -2 -2 -3
-0 0 1 2 2 2 2 2 1 0 -0 -1 -1 -1 -1 -1 -1 -2 -2 -2 -2 -1 -1 -1 -1 -1 -1 -1 -1 -1 -1 -1 -1 -1 -1 -0 -0 -0 0 0 0 0 0 0 -0 -0 -0 -0 -1 -1 -1 -1 -1 -1 -1 -1 -1 -2 -2 -2 -1 -1 -1 -0 -1 -1 -2 -3 -4
1 2 2 3 2 2 1 0 -1 -2 -2 -2 -2 -1 -1 -1 -1 -1 -1 -1 -0 0 0 1 1 0 0 -0 -0 -1 -1 -1 -1 -1 -0 -0 -0 -0 -0 -0 0 0 0 0 0 0 0 -0 -0 -0 -0 -0 -0 -1 -1 -1 -2 -1 -1 -1 -0 -0 0 1 0 -0 -1 -3 -4
1 1 1 0 -0 -1 -1 -2 -2 -2 -2 -2 -2 -1 -1 -0 -0 -0 -0 0 0 1 1 1 1 1 1 1 0 -0 -1 -1 -1 -1 -1 -1 -1 -1 -1 -1 -1 -1 -0 -0 -1 -1 -1 -0 -0 -0 -0 -0 -0 -0 -1 -1 -1 -1 -1 -1 -1 -1 -0 1 1 0 -0 -2 -3
0 -0 -0 -1 -2 -2 -1 -1 -2 -2 -2 -2 -1 -1 -0 0 0 0 0 0 0 1 1 1 1 1 1 1 -0 -0 -1 -1 -1 -1 -2 -2 -1 -1 -1 -2 -2 -1 -1 -2 -2 -2 -2 -1 -1 -0 0 0 0 0 -0 -1 -1 -1 -2 -2 -3 -2 -1 -0 1 0 -0 -2 -2
0 0 -0 -1 -1 -2 -1 -1 -1 -2 -2 -1 -1 -1 -0 -0 0 0 -0 -0 -0 0 1 1 1 1 1 0 0 -0 -0 -0 -0 -1 -1 -1 -1 -1 -2 -2 -2 -2 -2 -2 -2 -3 -2 -2 -1 -0 0 1 1 1 1 -0 -1 -2 -3 -4 -3 -3 -1 -0 0 -0 -1 -2 -2
1 1 1 -1 -2 -2 -2 -1 -1 -1 -1 -2 -2 -1 -1 -1 -0 -0 -0 -0 -0 -0 0 1 1 1 1 1 0 0 0 0 1 1 0 -0 -1 -1 -2 -2 -2 -2 -2 -2 -2 -2 -2 -2 -1 -0 0 1 1 1 1 -0 -2 -3 -3 -3 -2 -1 -1 0 0 -0 -0 -1 -0
1 1 1 -1 -2 -1 -1 -0 -0 -1 -1 -2 -2 -2 -2 -1 -1 -1 -1 -1 -1 -1 -0 0 0 1 1 1 0 0 0 1 1 1 1 -0 -1 -1 -2 -3 -3 -3 -3 -3 -2 -2 -1 -1 -1 -0 0 1 1 1 -0 -1 -2 -3 -3 -2 -1 -1 0 1 1 0 -0 -0 0
1 1 1 0 -1 -1 -1 -1 -1 -1 -1 -2 -3 -3 -2 -2 -2 -2 -1 -1 -1 -0 -0 0 0 0 1 1 0 0 0 0 0 1 0 0 -1 -2 -2 -3 -3 -3 -3 -2 -1 -1 -1 -0 -0 -0 -0 -0 -0 -0 -1 -2 -2 -2 -2 -2 -1 -0 0 1 0 0 -0 -0 0
-0 0 0 0 -0 -1 -2 -2 -2 -2 -3 -3 -3 -3 -2 -1 -1 -1 -1 -1 -0 -0 -0 -0 0 1 1 1 1 0 -0 -1 -1 -1 -1 -0 -1 -1 -2 -2 -2 -2 -2 -1 -1 -0 -0 -0 -0 -1 -1 -1 -1 -2 -2 -2 -2 -2 -2 -1 -1 -0 -0 -0 -0 -1 -1 -1 -1
-1 -1 -1 -1 -1 -1 -2 -2 -2 -3 -3 -3 -3 -2 -1 -0 -0 0 0 0 0 0 0 0 0 1 1 1 1 -0 -1 -2 -2 -2 -1 -1 -0 -0 -0 -1 -1 -1 -1 -0 -0 -0 0 0 -0 -1 -1 -2 -2 -2 -2 -2 -2 -2 -1 -1 -1 -1 -1 -1 -1 -1 -2 -2 -2
-1 -2 -2 -2 -2 -3 -2 -2 -2 -2 -2 -1 -1 -0 -0 0 0 1 1 1 0 0 0 0 1 1 1 -0 -1 -1 -2 -2 -2 -1 -1 -1 -0 0 0 0 0 0 -0 -0 0 0 1 0 -0 -1 -2 -2 -2 -2 -2 -2 -1 -1 -1 -1 -1 -1 -1 -1 -1 -1 -1 -1 -1
-1 -2 -2 -3 -4 -4 -3 -2 -2 -1 -1 -1 -1 -0 0 0 0 0 0 0 0 0 0 0 0 -0 -1 -1 -1 -1 -1 -1 -1 -1 -1 -1 -0 0 0 0 0 0 0 -0 0 1 1 0 -1 -2 -2 -2 -2 -2 -1 -1 -1 -1 -1 -1 -0 -0 -0 -0 -1 -0 -0 0 0
-1 -1 -2 -3 -4 -4 -4 -3 -2 -2 -1 -1 -1 -0 -0 -0 -1 -1 -0 -0 0 0 0 -0 -1 -1 -1 -1 -1 -1 -0 -0 -1 -1 -1 -0 0 1 1 0 0 0 -0 -0 0 1 0 -0 -1 -2 -2 -2 -2 -2 -1 -1 -0 -0 0 0 0 0 0 0 0 0 1 1 1
-1 -2 -2 -3 -3 -3 -2 -2 -2 -2 -1 -1 -1 -1 -1 -1 -1 -1 -1 -0 0 0 -0 -0 -1 -1 -1 -1 -1 -0 -0 -0 -0 -0 -1 -0 0 1 1 1 0 0 -0 -0 -0 -0 -1 -1 -2 -2 -2 -2 -2 -1 -0 0 0 1 1 1 1 0 0 0 0 0 0 0 1
-2 -2 -2 -2 -2 -1 -1 -1 -1 -1 -1 -0 -0 -1 -1 -1 -1 -1 -1 -0 0 0 0 -0 -0 -0 -0 -0 -0 -0 -0 -0 -0 -0 -0 -0 0 1 1 1 0 0 -0 -0 -0 -1 -1 -2 -2 -2 -2 -1 -1 -0 0 0 1 1 1 0 0 0 0 -0 -0 -0 0 0 0
-2 -1 -1 -1 -0 -0 -0 -0 -0 -0 -0 -0 -0 -1 -1 -1 -1 -1 -0 -0 0 1 1 1 1 0 0 1 0 -0 -0 -1 -1 -1 -0 -0 -0 0 0 1 0 0 -0 -0 -0 -1 -1 -1 -2 -2 -1 -1 -1 -0 -0 0 0 0 0 0 0 0 0 -0 -0 0 0 1 1
-0 -0 -0 -0 -0 -0 0 0 0 0 -0 -0 -1 -1 -1 -1 -1 -0 -0 0 0 1 1 1 1 1 1 1 1 0 -0 -1 -1 -1 -1 -0 -0 -0 0 0 0 0 0 -0 -0 -1 -1 -1 -1 -1 -1 -1 -1 -0 -0 -0 -0 0 0 1 1 0 0 0 0 0 1 1 1
Height
1494 1494 1494 1494 1494 1494 1494 1494 1495 1495 1495 1495 1495 1496 1496 1497 1497 1498 1499 1500 1500 1501 1501 1502 1502 1502 1502 1502 1503 1504 1503 1502 1503 1503 1504 1504 1504 1504 1504 1504 1503 1503 1503 1503 1503 1504 1506 1507 1508 1509 1509 1508 1508 1508 1509 1511 1512 1512 1512 1512 1512 1511 1511 1511 1510 1510 1511 1511 1511
1492 1492 1492 1492 1492 1492 1492 1493 1493 1493 1493 1493 1494 1494 1495 1495 1496 1496 1497 1498 1498 1499 1500 1500 1501 1500 1500 1500 1501 1502 1502 1501 1502 1502 1503 1503 1503 1503 1503 1503 1504 1504 1504 1504 1504 1505 1506 1507 1507 1508 1508 1507 1508 1508 1509 1509 1510 1510 1509 1509 1509 1509 1509 1508 1508 1508 1508 1508 1508
1491 1491 1491 1491 1491 1491 1491 1491 1491 1492 1492 1492 1492 1492 1493 1493 1494 1494 1495 1496 1497 1497 1498 1498 1499 1498 1498 1499 1499 1499 1500 1500 1501 1501 1501 1502 1502 1502 1502 1502 1502 1503 1503 1503 1504 1504 1505 1506 1507 1507 1507 1507 1507 1507 1507 1507 1508 1508 1507 1507 1507 1507 1507 1507 1506 1506 1506 1506 1506
1489 1489 1489 1489 1489 1490 1490 1490 1490 1490 1490 1490 1491 1491 1491 1492 1492 1493 1493 1494 1495 1495 1496 1496 1497 1497 1497 1497 1497 1497 1498 1499 1499 1500 1500 1500 1500 1500 1500 1500 1501 1501 1502 1502 1503 1504 1504 1505 1506 1506 1506 1506 1506 1506 1506 1506 1506 1506 1506 1505 1505 1505 1505 1504 1504 1504 1504 1503 1503
1488 1488 1487 1487 1488 1488 1488 1488 1489 1489 1489 1489 1489 1489 1490 1490 1491 1491 1492 1492 1493 1493 1493 1494 1495 1495 1496 1496 1496 1496 1497 1497 1498 1498 1498 1498 1498 1498 1498 1498 1499 1500 1502 1502 1503 1503 1503 1504 1504 1504 1505 1505 1505 1505 1505 1504 1504 1504 1503 1503 1503 1503 1502 1502 1502 1502 1501 1501 1501
1486 1486 1486 1486 1486 1487 1487 1487 1487 1487 1487 1487 1488 1488 1488 1489 1489 1490 1490 1491 1491 1491 1491 1492 1493 1494 1494 1495 1495 1495 1495 1496 1497 1497 1497 1497 1497 1498 1499 1499 1500 1500 1501 1501 1502 1502 1502 1502 1503 1503 1503 1503 1503 1503 1502 1502 1502 1502 1502 1502 1501 1501 1500 1500 1499 1499 1499 1498 1498
1485 1485 1485 1485 1485 1486 1486 1486 1486 1486 1486 1486 1486 1486 1486 1487 1487 1487 1488 1488 1489 1489 1489 1490 1491 1492 1493 1493 1493 1493 1494 1494 1495 1496 1497 1497 1497 1497 1498 1498 1499 1499 1500 1500 1501 1501 1501 1501 1501 1501 1502 1501 1501 1501 1501 1501 1500 1500 1500 1499 1499 1498 1498 1497 1497 1497 1497 1496 1496
1483 1483 1484 1484 1484 1484 1484 1485 1485 1485 1485 1485 1484 1484 1484 1485 1485 1485 1486 1487 1487 1487 1488 1489 1490 1490 1491 1491 1492 1492 1492 1493 1493 1494 1495 1496 1496 1496 1497 1497 1497 1498 1498 1499 1499 1499 1499 1499 1500 1500 1500 1500 1500 1500 1499 1499 1498 1498 1498 1497 1497 1497 1496 1496 1495 1495 1495 1494 1494
1482 1482 1482 1482 1482 1483 1483 1483 1483 1483 1483 1483 1483 1483 1483 1483 1483 1483 1484 1484 1485 1486 1487 1487 1488 1488 1489 1489 1490 1491 1491 1492 1492 1493 1493 1494 1495 1495 1495 1496 1497 1497 1497 1497 1497 1497 1497 1498 1498 1498 1498 1498 1498 1498 1497 1497 1497 1496 1496 1496 1495 1495 1494 1494 1493 1493 1492 1492 1492
1481 1481 1481 1481 1481 1482 1482 1482 1481 1481 1481 1481 1481 1481 1481 1481 1481 1482 1482 1483 1483 1484 1485 1486 1486 1487 1487 1488 1488 1489 1490 1490 1491 1491 1492 1492 1493 1493 1494 1495 1495 1495 1495 1496 1496 1496 1496 1497 1497 1497 1497 1497 1496 1496 1495 1495 1495 1494 1494 1494 1494 1493 1493 1492 1492 1492 1491 1491 1490
1480 1480 1480 1480 1480 1480 1480 1480 1479 1479 1479 1480 1480 1480 1480 1480 1480 1480 1481 1481 1482 1482 1483 1484 1485 1485 1486 1487 1487 1488 1488 1489 1489 1490 1490 1491 1492 1492 1493 1493 1494 1494 1494 1494 1495 1495 1495 1495 1495 1495 1495 1494 1494 1494 1494 1493 1493 1493 1493 1492 1492 1492 1491 1491 1490 1490 1490 1489 1489
1479 1479 1478 1478 1478 1478 1478 1478 1477 1478 1478 1478 1478 1478 1478 1478 1479 1479 1480 1480 1481 1481 1482 1482 1483 1484 1485 1485 1486 1486 1487 1487 1488 1488 1489 1490 1490 1491 1492 1492 1492 1492 1493 1493 1493 1493 1493 1493 1493 1493 1492 1492 1492 1492 1492 1492 1492 1492 1491 1491 1490 1490 1490 1489 1489 1488 1488 1487 1487
1477 1477 1477 1477 1477 1477 1477 1477 1477 1477 1477 1477 1477 1477 1477 1478 1478 1478 1479 1479 1480 1480 1481 1482 1482 1483 1483 1484 1485 1485 1486 1486 1487 1487 1488 1488 1489 1490 1490 1490 1491 1491 1491 1492 1492 1492 1492 1491 1491 1491 1491 1491 1490 1490 1490 1490 1490 1490 1490 1490 1489 1489 1488 1488 1487 1487 1487 1486 1486
1476 1476 1476 1476 1476 1476 1476 1476 1476 1476 1476 1476 1477 1477 1477 1477 1478 1478 1478 1479 1479 1480 1480 1481 1481 1482 1482 1483 1484 1484 1485 1485 1486 1487 1487 1487 1488 1488 1488 1489 1489 1489 1490 1490 1490 1490 1490 1489 1489 1489 1489 1489 1489 1489 1489 1489 1489 1489 1489 1488 1488 1488 1487 1487 1487 1486 1486 1485 1485
1475 1475 1475 1475 1475 1475 1475 1475 1475 1475 1475 1476 1476 1476 1477 1477 1477 1477 1478 1478 1478 1479 1479 1480 1480 1481 1482 1482 1483 1484 1484 1485 1485 1485 1486 1486 1487 1487 1487 1487 1487 1488 1488 1488 1488 1488 1488 1488 1488 1488 1488 1488 1488 1488 1488 1487 1487 1487 1487 1487 1487 1487 1486 1486 1485 1485 1485 1484 1484
1474 1474 1474 1474 1475 1475 1474 1474 1474 1475 1475 1475 1476 1476 1476 1476 1477 1477 1477 1477 1478 1478 1479 1479 1480 1481 1481 1482 1482 1483 1483 1484 1484 1484 1485 1485 1485 1485 1486 1486 1486 1487 1487 1487 1487 1487 1487 1487 1487 1487 1487 1487 1487 1487 1487 1486 1486 1486 1486 1486 1486 1485 1485 1485 1485 1484 1484 1483 1482
1474 1474 1474 1474 1474 1474 1474 1474 1474 1474 1475 1475 1475 1475 1476 1476 1476 1477 1477 1477 1477 1478 1478 1479 1479 1480 1480 1481 1481 1482 1482 1482 1483 1483 1483 1483 1484 1484 1484 1485 1485 1485 1485 1486 1486 1486 1486 1486 1486 1486 1486 1486 1486 1485 1485 1485 1485 1485 1485 1484 1484 1484 1484 1483 1483 1483 1482 1482 1481
1473 1474 1474 1474 1474 1474 1474 1474 1474 1474 1474 1474 1475 1475 1475 1476 1476 1476 1477 1477 1477 1477 1478 1478 1478 1479 1479 1479 1480 1480 1481 1481 1481 1482 1482 1482 1483 1483 1483 1483 1484 1484 1484 1484 1484 1485 1485 1485 1485 1484 1484 1484 1484 1484 1484 1484 1484 1484 1483 1483 1483 1482 1482 1482 1482 1481 1481 1480 1480
1473 1473 1473 1473 1473 1473 1473 1473 1474 1474 1474 1474 1474 1474 1475 1475 1475 1475 1476 1476 1476 1477 1477 1477 1477 1478 1478 1478 1479 1479 1480 1480 1480 1481 1481 1481 1482 1482 1482 1482 1482 1483 1483 1483 1483 1483 1483 1483 1483 1483 1483 1483 1483 1483 1483 1483 1482 1482 1482 1482 1482 1481 1481 1481 1480 1480 1479 1479 1478
1473 1473 1473 1473 1473 1473 1473 1473 1473 1473 1473 1473 1474 1474 1474 1474 1474 1475 1475 1475 1475 1476 1476 1477 1477 1477 1477 1478 1478 1478 1479 1479 1479 1479 1480 1480 1480 1481 1481 1481 1481 1482 1482 1482 1482 1482 1482 1482 1482 1482 1482 1482 1482 1482 1482 1482 1481 1481 1481 1481 1480 1480 1480 1479 1479 1478 1478 1478 1478
1472 1472 1472 1472 1472 1472 1472 1472 1472 1472 1472 1473 1473 1473 1473 1473 1474 1474 1474 1474 1474 1475 1475 1475 1476 1476 1476 1477 1477 1477 1477 1478 1478 1478 1478 1479 1479 1479 1480 1480 1480 1480 1480 1480 1480 1480 1480 1480 1480 1480 1481 1481 1481 1481 1480 1480 1480 1480 1480 1479 1479 1479 1478 1478 1477 1477 1477 1477 1477
1472 1472 1472 1472 1472 1472 1472 1472 1472 1472 1472 1472 1472 1472 1473 1473 1473 1473 1473 1473 1474 1474 1474 1474 1475 1475 1475 1476 1476 1476 1477 1477 1477 1477 1477 1478 1478 1478 1479 1479 1479 1479 1479 1479 1479 1479 1479 1479 1479 1480 1480 1480 1480 1480 1479 1479 1479 1479 1478 1478 1478 1477 1477 1477 1477 1477 1477 1477 1477
1471 1471 1471 1471 1472 1472 1472 1472 1472 1472 1472 1472 1472 1472 1472 1472 1472 1472 1473 1473 1473 1473 1473 1474 1474 1474 1475 1475 1475 1476 1476 1476 1476 1477 1477 1477 1477 1478 1478 1478 1478 1478 1478 1478 1478 1478 1478 1478 1479 1479 1479 1479 1479 1479 1478 1478 1478 1478 1477 1477 1477 1477 1477 1477 1476 1476 1476 1476 1477
1471 1471 1471 1472 1472 1472 1472 1472 1472 1472 1472 1472 1472 1472 1472 1472 1472 1472 1472 1472 1473 1473 1473 1473 1474 1474 1474 1474 1475 1475 1475 1476 1476 1476 1476 1477 1477 1477 1477 1477 1477 1477 1477 1477 1477 1478 1478 1478 1478 1478 1478 1478 1478 1478 1477 1477 1477 1477 1477 1477 1477 1476 1476 1476 1476 1476 1476 1476 1476
1472 1472 1472 1472 1472 1472 1472 1472 1472 1472 1472 1472 1472 1472 1472 1472 1472 1472 1472 1472 1473 1473 1473 1473 1474 1474 1474 1474 1475 1475 1475 1475 1476 1476 1476 1476 1476 1477 1477 1477 1477 1477 1477 1477 1477 1477 1477 1477 1477 1477 1477 1477 1477 1477 1476 1476 1476 1476 1476 1476 1476 1476 1476 1476 1475 1475 1475 1475 1476
1472 1472 1472 1472 1472 1472 1472 1472 1472 1472 1472 1472 1472 1472 1472 1472 1472 1472 1472 1472 1473 1473 1474 1474 1474 1474 1474 1475 1475 1475 1475 1476 1476 1476 1476 1476 1476 1476 1476 1477 1477 1477 1477 1477 1477 1477 1477 1477 1477 1476 1476 1476 1476 1476 1476 1476 1476 1476 1476 1476 1476 1476 1476 1475 1475 1475 1475 1475 1476
1472 1472 1472 1472 1472 1472 1472 1472 1472 1472 1472 1472 1472 1472 1472 1472 1472 1472 1472 1473 1473 1474 1474 1474 1474 1475 1475 1475 1475 1475 1475 1475 1476 1476 1476 1476 1476 1476 1476 1476 1476 1476 1477 1477 1477 1476 1476 1476 1476 1476 1475 1475 1475 1475 1475 1475 1475 1475 1475 1476 1476 1476 1476 1475 1475 1475 1475 1475 1476
1472 1472 1472 1472 1472 1472 1472 1472 1472 1472 1472 1472 1472 1472 1472 1472 1473 1473 1473 1474 1474 1474 1474 1475 1475 1475 1475 1475 1475 1475 1475 1475 1475 1475 1475 1475 1475 1475 1475 1476 1476 1476 1476 1476 1476 1476 1475 1475 1475 1475 1475 1474 1474 1474 1474 1475 1475 1475 1475 1475 1476 1476 1476 1476 1476 1476 1476 1476 1476
1472 1472 1472 1472 1472 1472 1472 1472 1472 1472 1472 1472 1472 1472 1473 1473 1473 1474 1474 1474 1474 1474 1475 1475 1475 1475 1475 1474 1474 1474 1474 1474 1474 1474 1474 1474 1474 1474 1475 1475 1475 1475 1475 1475 1475 1475 1475 1475 1475 1474 1474 1474 1474 1474 1474 1474 1475 1475 1475 1475 1476 1476 1476 1476 1477 1477 1477 1477 1477
1471 1471 1471 1472 1472 1472 1472 1472 1472 1472 1472 1472 1473 1473 1473 1473 1474 1474 1474 1474 1474 1474 1475 1475 1474 1474 1474 1474 1474 1474 1473 1473 1473 1473 1473 1473 1473 1474 1474 1474 1474 1474 1474 1474 1474 1474 1474 1474 1474 1474 1474 1474 1474 1474 1474 1474 1475 1475 1475 1476 1476 1476 1477 1477 1477 1477 1477 1477 1477
1471 1471 1471 1472 1472 1472 1472 1472 1472 1472 1473 1473 1473 1473 1474 1474 1474 1474 1474 1474 1474 1474 1474 1474 1474 1474 1473 1473 1473 1473 1473 1473 1473 1473 1473 1473 1473 1473 1474 1474 1474 1473 1474 1474 1474 1474 1474 1474 1474 1474 1474 1474 1474 1474 1474 1475 1475 1475 1476 1476 1476 1477 1477 1477 1477 1477 1477 1477 1477
1471 1471 1471 1472 1472 1472 1472 1472 1473 1473 1473 1474 1474 1474 1474 1474 1474 1474 1474 1474 1474 1474 1474 1473 1473 1473 1473 1473 1473 1473 1473 1473 1473 1473 1473 1473 1473 1473 1473 1473 1473 1473 1473 1474 1474 1474 1474 1474 1474 1474 1475 1475 1475 1475 1475 1475 1475 1476 1476 1476 1476 1477 1477 1477 1477 1477 1477 1477 1477
1471 1471 1472 1472 1472 1472 1473 1473 1473 1473 1474 1474 1474 1474 1474 1474 1474 1474 1474 1474 1474 1473 1473 1473 1473 1473 1473 1472 1472 1472 1472 1472 1473 1472 1472 1472 1472 1472 1472 1472 1472 1473 1473 1474 1474 1474 1474 1474 1474 1475 1475 1475 1475 1475 1475 1475 1475 1476 1476 1476 1476 1477 1477 1477 1477 1477 1477 1477 1476
1471 1471 1472 1472 1472 1472 1473 1473 1473 1473 1473 1473 1473 1473 1473 1474 1474 1473 1473 1473 1473 1473 1473 1473 1473 1473 1473 1473 1472 1472 1472 1472 1472 1472 1472 1472 1472 1472 1472 1472 1472 1473 1473 1473 1474 1474 1474 1474 1475 1475 1475 1475 1475 1475 1475 1476 1476 1476 1476 1476 1477 1477 1477 1477 1477 1477 1477 1476 1476
1471 1471 1472 1472 1472 1472 1472 1472 1472 1472 1472 1473 1473 1473 1473 1473 1473 1473 1473 1473 1473 1473 1473 1473 1473 1473 1472 1472 1472 1472 1472 1472 1472 1472 1472 1472 1472 1472 1472 1472 1473 1473 1473 1473 1474 1474 1474 1475 1475 1475 1476 1476 1476 1476 1476 1476 1476 1476 1477 1477 1477 1477 1477 1477 1477 1476 1476 1476 1476
1471 1472 1472 1472 1472 1472 1472 1472 1472 1472 1472 1472 1472 1472 1472 1473 1473 1473 1473 1473 1473 1473 1472 1472 1472 1472 1472 1472 1472 1472 1472 1472 1472 1472 1472 1473 1473 1473 1473 1473 1473 1473 1473 1474 1474 1475 1475 1475 1476 1476 1476 1476 1476 1476 1476 1476 1477 1477 1477 1477 1477 1477 1476 1476 1476 1476 1475 1475 1475
1471 1472 1472 1472 1472 1472 1472 1472 1472 1472 1472 1472 1472 1472 1472 1472 1472 1472 1472 1472 1472 1472 1472 1472 1472 1472 1472 1472 1472 1472 1472 1472 1472 1472 1472 1473 1473 1473 1473 1473 1473 1474 1474 1474 1475 1475 1476 1476 1476 1476 1476 1476 1476 1476 1477 1477 1477 1477 1477 1476 1476 1476 1476 1476 1475 1475 1475 1475 1474
1471 1472 1472 1472 1472 1472 1471 1471 1471 1471 1471 1472 1472 1472 1472 1472 1472 1472 1472 1472 1472 1472 1472 1472 1471 1471 1472 1472 1472 1472 1472 1472 1472 1473 1473 1473 1474 1474 1474 1474 1474 1474 1475 1475 1475 1476 1476 1476 1477 1477 1477 1476 1476 1476 1476 1476 1476 1476 1476 1476 1476 1475 1475 1475 1475 1475 1474 1474 1474
1471 1471 1471 1471 1471 1471 1471 1471 1471 1471 1471 1471 1472 1472 1472 1472 1472 1472 1472 1472 1472 1472 1471 1471 1471 1471 1472 1472 1472 1472 1472 1472 1473 1473 1474 1474 1474 1475 1475 1475 1475 1475 1475 1476 1476 1476 1476 1477 1477 1477 1476 1476 1476 1476 1476 1476 1476 1476 1476 1475 1475 1475 1475 1475 1474 1474 1474 1473 1473
1470 1470 1470 1470 1470 1470 1470 1470 1470 1471 1471 1471 1471 1471 1471 1471 1471 1471 1472 1472 1472 1472 1471 1471 1471 1472 1472 1472 1472 1472 1472 1473 1473 1474 1474 1475 1475 1475 1476 1476 1476 1476 1476 1476 1476 1476 1476 1476 1476 1476 1476 1476 1476 1476 1476 1476 1476 1475 1475 1475 1475 1474 1474 1474 1474 1474 1473 1473 1473
1469 1469 1469 1470 1470 1470 1470 1470 1470 1470 1471 1471 1471 1471 1471 1471 1471 1471 1471 1471 1471 1471 1471 1471 1472 1472 1472 1472 1473 1473 1473 1473 1474 1475 1475 1475 1475 1476 1476 1476 1476 1476 1476 1476 1476 1476 1476 1476 1476 1476 1476 1476 1476 1476 1476 1475 1475 1475 1475 1474 1474 1474 1474 1473 1473 1473 1473 1473 1472